period_start,C,m1,H,J0,J1,J2,J3,J4,J5,JA,JB,JC,JD,JJ,JK,JN,#
2016-02-18 00:02:23,0.03,3.05,0.00,18.24,22.14,26.04,14.83,48.29,1022.00,2051.94,2366.46,2498.94,2748.07,599.63,608.57,34.80,0000 0000 0000 0000 000000
2016-02-18 00:07:24,0.02,3.05,0.00,18.24,22.14,26.08,14.86,48.17,1022.03,2051.96,2365.80,2498.85,2748.01,599.76,608.81,34.85,0000 0000 0000 0000 000000
2016-02-18 00:12:25,0.03,3.05,0.00,18.25,22.14,26.16,14.93,48.03,1022.02,2051.97,2365.02,2498.56,2747.98,600.19,609.16,34.90,0000 0000 0000 0000 000000
2016-02-18 00:17:26,0.03,3.05,0.00,18.23,22.13,26.08,14.95,48.64,1022.00,2051.98,2364.21,2498.49,2747.95,600.15,609.17,34.95,0000 0000 0000 0000 000000
2016-02-18 00:22:27,0.05,3.06,0.00,18.23,22.12,26.04,14.88,48.92,1021.99,2051.98,2363.32,2498.14,2747.50,599.90,608.86,35.00,0000 0000 0000 0000 000000
2016-02-18 00:27:29,0.01,3.06,0.00,18.23,22.12,26.05,14.84,48.29,1021.99,2051.98,2362.82,2498.08,2747.04,599.84,608.83,35.05,0000 0000 0000 0000 000000
2016-02-18 00:32:30,0.02,3.06,0.00,18.22,22.11,26.03,14.78,48.09,1022.00,2051.99,2361.99,2498.03,2747.00,599.53,608.56,35.10,0000 0000 0000 0000 000000
2016-02-18 00:37:31,0.02,3.06,0.00,18.19,22.10,26.03,14.91,48.03,1022.01,2051.99,2361.13,2498.02,2746.94,599.89,609.01,35.15,0000 0000 0000 0000 000000
2016-02-18 00:42:32,0.04,3.06,0.00,18.18,22.09,26.05,14.90,48.68,1022.00,2051.98,2360.34,2498.00,2746.28,600.31,609.48,35.20,0000 0000 0000 0000 000000
2016-02-18 00:47:33,0.02,3.06,0.00,18.17,22.08,26.07,14.94,48.99,1022.00,2051.99,2359.47,2498.00,2746.02,600.27,609.47,35.26,0000 0000 0000 0000 000000
2016-02-18 00:52:35,0.01,3.06,0.00,18.17,22.07,26.03,14.84,48.58,1022.03,2051.99,2358.66,2498.00,2746.00,599.98,609.04,35.31,0000 0000 0000 0000 000000
2016-02-18 00:57:36,0.01,3.07,0.00,18.18,22.07,26.04,14.95,48.53,1022.03,2051.99,2358.01,2498.00,2745.99,599.74,608.90,35.36,0000 0000 0000 0000 000000
2016-02-18 01:02:37,0.03,3.07,0.00,18.17,22.06,25.98,14.84,48.23,1022.00,2051.99,2357.13,2497.99,2745.92,599.81,608.99,35.41,0000 0000 0000 0000 000000
2016-02-18 01:07:39,0.03,3.07,0.00,18.16,22.05,25.92,14.97,48.49,1022.00,2051.99,2356.38,2497.98,2745.31,600.54,609.69,35.46,0000 0000 0000 0000 000000
2016-02-18 01:12:39,0.02,3.07,0.00,18.14,22.04,26.00,14.85,48.85,1022.00,2051.99,2355.43,2497.98,2745.03,599.62,608.79,35.51,0000 0000 0000 0000 000000
2016-02-18 01:17:41,0.00,3.07,0.00,18.14,22.04,25.96,14.81,48.18,1022.01,2052.01,2355.00,2497.98,2745.00,599.80,608.90,35.56,0000 0000 0000 0000 000000
2016-02-18 01:22:42,0.02,3.07,0.00,18.15,22.04,26.00,14.91,48.06,1022.04,2052.01,2354.29,2497.95,2744.97,600.22,609.45,35.61,0000 0000 0000 0000 000000
2016-02-18 01:27:43,0.05,3.07,0.00,18.14,22.04,26.00,14.96,48.09,1022.20,2052.00,2353.52,2497.65,2744.50,600.09,609.35,35.66,0000 0000 0000 0000 000000
2016-02-18 01:32:44,0.03,3.08,0.00,18.13,22.04,26.04,14.89,48.09,1022.11,2052.00,2352.67,2497.26,2744.02,600.08,609.33,35.71,0000 0000 0000 0000 000000
2016-02-18 01:37:46,0.01,3.08,0.00,18.12,22.04,25.97,14.82,48.34,1022.23,2052.01,2351.98,2497.14,2744.00,599.99,609.30,35.76,0000 0000 0000 0000 000000
2016-02-18 01:42:47,0.03,3.08,0.00,18.12,22.02,25.97,14.97,48.98,1022.13,2052.01,2351.09,2497.03,2743.96,600.05,609.37,35.81,0000 0000 0000 0000 000000
2016-02-18 01:47:49,0.04,3.08,0.00,18.12,22.02,25.94,14.92,48.65,1022.06,2052.01,2350.19,2497.00,2743.61,599.81,609.22,35.86,0000 0000 0000 0000 000000
2016-02-18 01:52:50,0.03,3.08,0.00,18.12,22.01,25.96,14.85,48.48,1022.03,2052.00,2349.37,2497.00,2743.05,600.12,609.43,35.91,0000 0000 0000 0000 000000
2016-02-18 01:57:52,0.02,3.08,0.00,18.12,22.00,26.04,14.86,48.45,1022.01,2052.01,2348.59,2497.00,2743.00,600.21,609.45,35.96,0000 0000 0000 0000 000000
2016-02-18 02:02:53,0.00,3.08,0.00,18.11,21.99,25.96,14.93,48.47,1022.04,2052.01,2347.91,2497.00,2742.98,599.56,608.96,36.01,0000 0000 0000 0000 000000
2016-02-18 02:07:54,0.03,3.09,0.00,18.09,21.99,25.99,14.91,48.45,1022.09,2052.04,2347.05,2497.00,2742.97,600.04,609.21,36.06,0000 0000 0000 0000 000000
2016-02-18 02:12:56,0.03,3.09,0.00,18.09,21.98,25.93,14.90,48.26,1022.09,2052.09,2346.42,2496.99,2742.65,600.39,609.70,36.11,0000 0000 0000 0000 000000
2016-02-18 02:17:57,0.04,3.09,0.00,18.09,21.97,25.98,14.82,48.69,1022.17,2052.14,2345.46,2496.98,2742.07,599.72,609.32,36.17,0000 0000 0000 0000 000000
2016-02-18 02:22:58,0.03,3.09,0.00,18.10,21.97,25.96,14.97,49.11,1022.30,2052.17,2344.55,2496.95,2742.00,600.33,609.75,36.22,0000 0000 0000 0000 000000
2016-02-18 02:28:00,0.01,3.09,0.00,18.11,21.96,25.90,14.81,48.97,1022.41,2052.20,2343.81,2496.76,2741.98,599.63,609.14,36.27,0000 0000 0000 0000 000000
2016-02-18 02:33:01,0.04,3.09,0.00,18.11,21.95,25.92,14.93,49.15,1022.46,2052.21,2343.04,2496.41,2741.85,600.42,610.03,36.32,0000 0000 0000 0000 000000
2016-02-18 02:38:02,0.07,3.10,0.00,18.09,21.94,25.86,14.86,49.07,1022.48,2052.36,2342.24,2496.13,2741.19,600.19,609.81,36.37,0000 0000 0000 0000 000000
2016-02-18 02:43:03,0.05,3.10,0.00,18.10,21.94,25.88,14.95,49.19,1022.48,2052.61,2341.40,2496.08,2741.04,600.13,609.72,36.42,0000 0000 0000 0000 000000
2016-02-18 02:48:05,0.01,3.10,0.00,18.09,21.94,25.86,14.98,49.29,1022.48,2052.67,2340.77,2496.02,2741.00,600.02,609.57,36.47,0000 0000 0000 0000 000000
2016-02-18 02:53:06,0.00,3.10,0.00,18.09,21.94,25.93,14.94,49.23,1022.48,2052.51,2340.01,2496.02,2740.97,600.01,609.57,36.52,0000 0000 0000 0000 000000
2016-02-18 02:58:08,0.04,3.10,0.00,18.09,21.94,25.96,14.90,49.13,1022.48,2052.43,2339.14,2496.00,2740.40,599.92,609.51,36.57,0000 0000 0000 0000 000000
2016-02-18 03:03:09,0.01,3.11,0.00,18.10,21.95,25.89,14.87,49.12,1022.47,2052.48,2338.42,2496.00,2740.02,599.74,609.26,36.62,0000 0000 0000 0000 000000
2016-02-18 03:08:10,0.02,3.11,0.00,18.09,21.95,25.85,14.88,49.29,1022.46,2052.24,2337.47,2495.99,2739.99,599.68,609.29,36.67,0000 0000 0000 0000 000000
2016-02-18 03:13:11,0.04,3.11,0.00,18.09,21.96,25.94,14.95,49.20,1022.45,2052.57,2336.80,2495.98,2739.96,600.05,609.62,36.72,0000 0000 0000 0000 000000
2016-02-18 03:18:13,0.03,3.11,0.00,18.09,21.97,25.95,14.86,49.26,1022.45,2052.52,2335.99,2495.97,2739.47,599.93,609.50,36.77,0000 0000 0000 0000 000000
2016-02-18 03:23:14,0.06,3.11,0.00,18.10,21.97,25.90,14.84,49.04,1022.36,2052.77,2335.10,2495.76,2739.02,599.78,609.27,36.82,0000 0000 0000 0000 000000
2016-02-18 03:28:15,0.01,3.11,0.00,18.12,21.97,25.96,14.93,49.34,1022.09,2052.54,2334.11,2495.10,2738.98,600.06,609.36,36.87,0000 0000 0000 0000 000000
2016-02-18 03:33:16,0.02,3.11,0.00,18.11,21.97,25.95,14.78,49.21,1022.15,2052.28,2333.28,2495.02,2738.61,599.80,609.16,36.92,0000 0000 0000 0000 000000
2016-02-18 03:38:17,0.05,3.12,0.00,18.12,21.97,25.95,14.91,49.30,1022.35,2052.39,2332.53,2495.00,2738.05,599.78,609.30,36.97,0000 0000 0000 0000 000000
2016-02-18 03:43:19,0.01,3.12,0.00,18.11,21.97,25.88,14.92,49.51,1022.31,2052.33,2331.59,2495.00,2738.01,600.08,609.51,37.02,0000 0000 0000 0000 000000
2016-02-18 03:48:20,0.03,3.12,0.00,18.13,21.97,25.90,14.95,49.30,1022.30,2052.42,2330.93,2495.00,2737.98,600.23,609.80,37.08,0000 0000 0000 0000 000000
2016-02-18 03:53:21,0.02,3.12,0.00,18.14,21.97,25.90,14.99,49.41,1022.13,2052.39,2330.09,2494.98,2737.76,599.86,609.23,37.13,0000 0000 0000 0000 000000
2016-02-18 03:58:22,0.04,3.12,0.00,18.16,21.97,25.86,14.94,49.33,1022.34,2052.38,2329.36,2494.96,2737.14,599.98,609.18,37.18,0000 0000 0000 0000 000000
2016-02-18 04:03:23,0.04,3.12,0.00,18.16,21.97,25.87,14.90,49.44,1022.34,2052.41,2328.48,2494.87,2737.01,599.85,609.26,37.23,0000 0000 0000 0000 000000
2016-02-18 04:08:25,0.02,3.13,0.00,18.14,21.97,25.90,14.96,49.42,1022.20,2052.39,2327.80,2494.41,2736.99,600.02,609.39,37.28,0000 0000 0000 0000 000000
2016-02-18 04:13:26,0.05,3.13,0.00,18.15,21.97,25.88,14.81,49.38,1022.25,2052.48,2327.03,2494.09,2736.96,599.83,609.16,37.33,0000 0000 0000 0000 000000
2016-02-18 04:18:27,0.05,3.13,0.00,18.18,21.97,25.92,14.96,49.56,1022.35,2052.71,2326.29,2494.06,2736.74,600.03,609.41,37.38,0000 0000 0000 0000 000000
2016-02-18 04:23:28,0.04,3.13,0.00,18.18,21.98,25.91,14.94,49.34,1022.46,2052.80,2325.65,2494.02,2736.11,599.95,609.34,37.43,0000 0000 0000 0000 000000
2016-02-18 04:28:30,-0.00,3.13,0.00,18.17,21.99,25.93,14.92,49.48,1022.48,2052.63,2324.89,2494.00,2736.00,600.18,609.65,37.48,0000 0000 0000 0000 000000
2016-02-18 04:33:31,0.03,3.13,0.00,18.18,21.99,25.89,14.79,49.49,1022.46,2052.73,2324.08,2494.00,2736.00,599.59,609.05,37.53,0000 0000 0000 0000 000000
2016-02-18 04:38:32,0.02,3.14,0.00,18.19,21.99,25.89,14.88,49.52,1022.44,2052.77,2323.42,2493.99,2735.96,599.92,609.16,37.58,0000 0000 0000 0000 000000
2016-02-18 04:43:34,0.02,3.14,0.00,18.21,21.99,25.97,14.88,49.56,1022.41,2052.84,2322.81,2493.99,2735.73,599.90,609.19,37.63,0000 0000 0000 0000 000000
2016-02-18 04:48:35,0.00,3.14,0.00,18.21,21.99,25.92,14.86,49.42,1022.20,2052.64,2322.04,2493.97,2735.08,599.94,609.18,37.68,0000 0000 0000 0000 000000
2016-02-18 04:53:36,0.03,3.14,0.00,18.21,21.99,25.90,14.99,49.63,1022.05,2052.70,2321.28,2493.96,2735.00,600.20,609.24,37.73,0000 0000 0000 0000 000000
2016-02-18 04:58:37,0.03,3.14,0.00,18.19,22.00,25.89,14.93,49.67,1022.06,2052.64,2320.55,2493.78,2734.99,600.03,609.21,37.78,0000 0000 0000 0000 000000
2016-02-18 05:03:39,0.04,3.14,0.00,18.22,22.00,25.94,15.03,49.63,1022.15,2052.80,2319.96,2493.47,2734.91,600.20,609.31,37.83,0000 0000 0000 0000 000000
2016-02-18 05:08:40,0.04,3.14,0.00,18.24,22.02,25.91,14.94,49.47,1022.33,2052.70,2319.14,2493.11,2734.23,600.17,609.37,37.88,0000 0000 0000 0000 000000
2016-02-18 05:13:41,0.01,3.15,0.00,18.24,22.02,25.90,14.83,49.39,1022.36,2052.68,2318.32,2493.03,2734.01,599.87,609.00,37.93,0000 0000 0000 0000 000000
2016-02-18 05:18:42,0.03,3.15,0.00,18.24,22.02,25.93,14.90,49.55,1022.36,2052.60,2317.57,2493.00,2733.99,599.73,609.06,37.99,0000 0000 0000 0000 000000
2016-02-18 05:23:43,0.02,3.15,0.00,18.25,22.02,26.02,14.84,49.64,1022.46,2052.73,2316.84,2493.00,2733.98,599.85,609.07,38.04,0000 0000 0000 0000 000000
2016-02-18 05:28:45,0.03,3.15,0.00,18.27,22.04,25.95,14.86,49.57,1022.48,2052.67,2316.04,2493.00,2733.62,599.78,609.12,38.09,0000 0000 0000 0000 000000
2016-02-18 05:33:46,0.04,3.15,0.00,18.27,22.04,25.96,14.87,49.66,1022.48,2052.74,2315.36,2492.97,2733.06,600.01,609.18,38.14,0000 0000 0000 0000 000000
2016-02-18 05:38:47,0.01,3.15,0.00,18.29,22.06,25.92,14.94,49.65,1022.48,2052.79,2314.64,2492.90,2733.01,599.92,609.06,38.19,0000 0000 0000 0000 000000
2016-02-18 05:43:49,0.02,3.15,0.00,18.31,22.07,26.00,14.86,49.59,1022.47,2052.65,2313.94,2492.47,2732.98,599.98,609.09,38.24,0000 0000 0000 0000 000000
2016-02-18 05:48:50,0.02,3.16,0.00,18.32,22.08,25.96,14.91,49.64,1022.48,2052.41,2313.08,2492.05,2732.61,599.98,608.93,38.29,0000 0000 0000 0000 000000
2016-02-18 05:53:51,0.01,3.16,0.00,18.33,22.09,25.99,14.93,49.65,1022.48,2052.27,2312.63,2492.01,2732.03,600.06,609.11,38.34,0000 0000 0000 0000 000000
2016-02-18 05:58:52,0.01,3.16,0.00,18.34,22.11,26.05,14.90,49.61,1022.48,2052.09,2311.66,2491.99,2732.00,600.06,609.06,38.39,0000 0000 0000 0000 000000
2016-02-18 06:03:53,0.02,3.16,0.00,18.34,22.12,26.04,14.84,49.59,1022.49,2052.07,2311.01,2491.96,2731.64,599.85,608.76,38.44,0000 0000 0000 0000 000000
2016-02-18 06:08:54,0.04,3.16,0.00,18.36,22.14,26.07,14.90,49.54,1022.50,2052.04,2310.32,2491.57,2731.07,600.04,609.09,38.49,0000 0000 0000 0000 000000
2016-02-18 06:13:55,0.02,3.16,0.00,18.37,22.14,26.08,14.95,49.57,1022.52,2052.02,2309.94,2491.07,2730.99,599.87,608.78,38.54,0000 0000 0000 0000 000000
2016-02-18 06:18:57,0.03,3.16,0.00,18.38,22.17,26.05,14.95,49.62,1022.53,2052.02,2309.11,2491.02,2730.84,600.31,609.33,38.59,0000 0000 0000 0000 000000
2016-02-18 06:23:58,0.03,3.16,0.00,18.39,22.17,26.14,14.80,49.44,1022.52,2052.00,2308.63,2491.00,2730.11,599.82,608.80,38.64,0000 0000 0000 0000 000000
2016-02-18 06:29:00,0.02,3.17,0.00,18.40,22.19,26.13,14.88,49.55,1022.61,2052.00,2307.70,2490.99,2730.00,600.04,608.99,38.69,0000 0000 0000 0000 000000
2016-02-18 06:34:01,0.01,3.17,0.00,18.40,22.19,26.09,14.94,49.58,1022.64,2052.00,2306.99,2490.87,2729.98,599.93,609.09,38.74,0000 0000 0000 0000 000000
2016-02-18 06:39:02,0.06,3.17,0.00,18.39,22.19,26.19,14.85,49.49,1022.50,2052.00,2306.10,2490.24,2729.44,599.84,608.86,38.79,0000 0000 0000 0000 000000
2016-02-18 06:44:04,0.03,3.17,0.00,18.40,22.20,26.09,14.92,49.67,1022.48,2052.00,2305.24,2490.02,2729.02,600.43,609.27,38.84,0000 0000 0000 0000 000000
2016-02-18 06:49:05,0.02,3.17,0.00,18.42,22.22,26.09,14.99,49.62,1022.48,2052.00,2304.54,2490.00,2729.00,599.97,608.76,38.90,0000 0000 0000 0000 000000
2016-02-18 06:54:07,0.02,3.17,0.00,18.41,22.22,26.14,15.00,49.60,1022.45,2052.00,2303.74,2489.98,2728.95,600.08,608.95,38.95,0000 0000 0000 0000 000000
2016-02-18 06:59:08,0.03,3.18,0.00,18.41,22.22,26.15,14.86,49.67,1022.16,2052.00,2303.01,2489.87,2728.30,599.70,608.44,39.00,0000 0000 0000 0000 000000
2016-02-18 07:04:09,0.04,3.18,0.00,18.44,22.23,26.14,14.89,49.64,1022.05,2052.00,2302.36,2489.50,2728.01,599.83,608.46,39.05,0000 0000 0000 0000 000000
2016-02-18 07:09:11,0.02,3.18,0.00,18.45,22.24,26.13,14.86,49.71,1022.05,2052.00,2301.68,2489.13,2727.99,599.86,608.44,39.10,0000 0000 0000 0000 000000
2016-02-18 07:14:12,0.02,3.18,0.00,18.47,22.24,26.19,14.87,49.63,1022.00,2051.99,2300.86,2489.00,2727.76,600.42,608.88,39.15,0000 0000 0000 0000 000000
2016-02-18 07:19:14,0.03,3.18,0.00,18.44,22.25,26.22,14.90,49.66,1022.00,2051.99,2300.00,2489.00,2727.20,599.80,608.35,39.20,0000 0000 0000 0000 000000
2016-02-18 07:24:15,0.02,3.18,0.00,18.46,22.27,26.20,14.88,49.58,1021.99,2051.99,2299.17,2488.97,2727.02,599.84,608.50,39.25,0000 0000 0000 0000 000000
2016-02-18 07:29:16,0.02,3.19,0.00,18.47,22.27,26.20,14.91,49.83,1021.99,2051.99,2298.65,2488.84,2726.98,599.90,608.35,39.30,0000 0000 0000 0000 000000
2016-02-18 07:34:17,0.04,3.19,0.00,18.49,22.28,26.25,14.89,49.63,1021.99,2051.99,2297.98,2488.20,2726.71,600.30,608.73,39.35,0000 0000 0000 0000 000000
2016-02-18 07:39:18,0.04,3.19,0.00,18.49,22.29,26.28,14.88,49.61,1021.99,2051.99,2297.15,2488.02,2726.09,599.98,608.41,39.40,0000 0000 0000 0000 000000
2016-02-18 07:44:19,0.02,3.19,0.00,18.49,22.30,26.22,14.95,49.90,1021.99,2051.99,2296.49,2488.00,2726.00,600.17,608.64,39.45,0000 0000 0000 0000 000000
2016-02-18 07:49:20,0.01,3.19,0.00,18.50,22.32,26.24,14.98,49.86,1021.99,2051.96,2295.75,2487.99,2725.97,600.49,608.96,39.50,0000 0000 0000 0000 000000
2016-02-18 07:54:22,0.03,3.19,0.00,18.53,22.32,26.20,14.89,49.96,1021.99,2051.98,2294.92,2487.90,2725.82,600.32,608.72,39.55,0000 0000 0000 0000 000000
2016-02-18 07:59:23,0.06,3.20,0.00,18.53,22.32,26.25,14.93,50.10,1021.99,2051.97,2294.05,2487.26,2725.19,600.05,608.48,39.60,0000 0000 0000 0000 000000
2016-02-18 08:04:24,0.03,3.20,0.00,18.54,22.34,26.31,14.92,50.27,1021.98,2051.98,2293.21,2487.01,2725.02,599.95,608.28,39.65,0000 0000 0000 0000 000000
2016-02-18 08:09:25,0.00,3.20,0.00,18.55,22.34,26.26,14.87,50.12,1021.97,2051.99,2292.89,2487.00,2725.00,599.92,608.44,39.70,0000 0000 0000 0000 000000
2016-02-18 08:14:27,0.02,3.20,0.00,18.55,22.35,26.26,14.85,50.13,1021.90,2051.98,2292.07,2486.99,2724.98,599.80,608.03,39.75,0000 0000 0000 0000 000000
2016-02-18 08:19:28,0.01,3.20,0.00,18.57,22.37,26.33,14.92,50.22,1021.69,2051.98,2291.85,2486.94,2724.75,600.26,608.39,39.80,0000 0000 0000 0000 000000
2016-02-18 08:24:29,0.05,3.20,0.00,18.55,22.37,26.28,14.90,50.08,1021.59,2051.99,2291.06,2486.49,2724.13,600.54,608.65,39.86,0000 0000 0000 0000 000000
2016-02-18 08:29:30,0.01,3.20,0.00,18.56,22.38,26.28,14.88,49.98,1021.68,2051.97,2290.93,2486.07,2724.01,600.18,608.35,39.91,0000 0000 0000 0000 000000
2016-02-18 08:34:31,0.02,3.21,0.00,18.55,22.39,26.30,14.87,49.98,1021.66,2051.98,2290.18,2486.01,2723.98,600.12,608.16,39.96,0000 0000 0000 0000 000000
2016-02-18 08:39:33,0.00,3.21,0.00,18.56,22.40,26.34,14.88,50.20,1021.62,2051.98,2289.98,2486.00,2723.88,599.88,608.23,40.01,0000 0000 0000 0000 000000
2016-02-18 08:44:34,0.04,3.21,0.00,18.56,22.42,26.32,14.86,50.30,1021.74,2051.98,2289.36,2485.98,2723.26,599.74,607.98,40.06,0000 0000 0000 0000 000000
2016-02-18 08:49:35,0.01,3.21,0.00,18.56,22.42,26.34,14.91,50.28,1021.90,2051.96,2288.98,2485.78,2723.01,599.76,608.00,40.11,0000 0000 0000 0000 000000
2016-02-18 08:54:37,0.04,3.21,0.00,18.57,22.43,26.33,14.92,50.25,1021.95,2051.94,2288.50,2485.32,2722.99,600.18,608.46,40.16,0000 0000 0000 0000 000000
2016-02-18 08:59:38,0.01,3.21,0.00,18.58,22.44,26.38,14.94,50.31,1021.96,2051.94,2288.02,2485.03,2722.91,600.22,608.45,40.21,0000 0000 0000 0000 000000
2016-02-18 09:04:39,0.03,3.21,0.00,18.58,22.45,26.36,14.93,50.37,1021.97,2051.94,2287.71,2485.00,2722.49,600.35,608.62,40.26,0000 0000 0000 0000 000000
2016-02-18 09:09:41,0.01,3.21,0.00,18.57,22.46,26.41,14.87,50.30,1021.96,2051.94,2287.03,2485.00,2722.06,599.85,608.04,40.31,0000 0000 0000 0000 000000
2016-02-18 09:14:42,0.01,3.21,0.00,18.59,22.47,26.38,14.83,50.31,1021.76,2051.86,2286.68,2484.97,2722.00,599.90,608.11,40.36,0000 0000 0000 0000 000000
2016-02-18 09:19:43,0.02,3.21,0.00,18.60,22.47,26.38,14.81,50.20,1021.66,2051.69,2286.03,2484.75,2721.99,599.73,607.80,40.41,0000 0000 0000 0000 000000
2016-02-18 09:24:44,0.03,3.22,0.00,18.58,22.49,26.39,14.91,50.07,1021.77,2051.74,2285.73,2484.28,2721.83,599.91,607.99,40.46,0000 0000 0000 0000 000000
2016-02-18 09:29:45,0.03,3.22,0.00,18.59,22.49,26.38,14.90,50.10,1021.88,2051.68,2285.03,2484.04,2721.15,599.94,608.07,40.51,0000 0000 0000 0000 000000
2016-02-18 09:34:47,-0.00,3.22,0.00,18.61,22.51,26.40,14.86,50.32,1021.93,2051.53,2284.72,2484.00,2721.01,599.72,607.85,40.56,0000 0000 0000 0000 000000
2016-02-18 09:39:48,0.02,3.22,0.00,18.63,22.52,26.42,14.89,50.13,1021.97,2051.57,2284.05,2484.00,2721.00,600.34,608.55,40.61,0000 0000 0000 0000 000000
2016-02-18 09:44:49,-0.01,3.22,0.00,18.64,22.52,26.42,14.90,50.33,1021.96,2051.48,2283.88,2483.97,2720.96,600.05,608.30,40.66,0000 0000 0000 0000 000000
2016-02-18 09:49:51,0.04,3.22,0.00,18.63,22.54,26.43,14.88,50.33,1021.78,2051.36,2283.09,2483.75,2720.45,600.21,608.41,40.72,0000 0000 0000 0000 000000
2016-02-18 09:54:51,0.02,3.22,0.00,18.64,22.54,26.45,14.89,50.23,1021.91,2051.23,2282.86,2483.14,2720.03,600.12,608.36,40.77,0000 0000 0000 0000 000000
2016-02-18 09:59:53,0.02,3.22,0.00,18.66,22.56,26.47,14.85,50.25,1021.96,2051.17,2282.07,2483.01,2720.00,600.13,608.22,40.82,0000 0000 0000 0000 000000
2016-02-18 10:04:54,-0.01,3.22,0.00,18.68,22.57,26.48,14.89,49.95,1021.90,2051.09,2281.99,2483.00,2719.98,600.01,608.01,40.87,0000 0000 0000 0000 000000
2016-02-18 10:09:55,0.03,3.22,0.00,18.69,22.59,26.51,14.85,50.11,1021.84,2051.06,2281.39,2482.99,2719.74,599.82,607.71,40.92,0000 0000 0000 0000 000000
2016-02-18 10:14:57,0.01,3.23,0.00,18.72,22.60,26.53,14.91,50.15,1021.99,2051.05,2281.00,2482.95,2719.11,599.83,607.86,40.97,0000 0000 0000 0000 000000
2016-02-18 10:19:58,0.02,3.23,0.00,18.73,22.62,26.51,14.85,50.08,1021.99,2051.07,2280.61,2482.76,2719.01,600.08,608.05,41.02,0000 0000 0000 0000 000000
2016-02-18 10:25:00,0.03,3.23,0.00,18.74,22.62,26.57,14.90,50.32,1022.00,2051.03,2280.01,2482.16,2718.99,600.28,608.05,41.07,0000 0000 0000 0000 000000
2016-02-18 10:30:01,0.01,3.23,0.00,18.74,22.63,26.52,14.84,50.57,1022.01,2051.02,2279.69,2482.03,2718.96,600.03,608.21,41.12,0000 0000 0000 0000 000000
2016-02-18 10:35:02,0.03,3.23,0.00,18.74,22.64,26.53,14.89,50.43,1022.10,2051.01,2279.03,2482.00,2718.38,599.97,607.96,41.17,0000 0000 0000 0000 000000
2016-02-18 10:40:04,0.01,3.23,0.00,18.76,22.65,26.55,14.93,50.21,1022.17,2051.01,2278.72,2481.99,2718.02,600.01,607.99,41.22,0000 0000 0000 0000 000000
2016-02-18 10:45:05,0.01,3.23,0.00,18.77,22.67,26.58,14.88,50.29,1022.04,2051.00,2278.04,2481.94,2718.00,600.27,608.06,41.27,0000 0000 0000 0000 000000
2016-02-18 10:50:06,0.03,3.23,0.00,18.79,22.67,26.59,14.87,50.27,1022.12,2051.00,2277.76,2481.59,2717.98,600.36,608.25,41.32,0000 0000 0000 0000 000000
2016-02-18 10:55:08,0.03,3.24,0.00,18.80,22.69,26.65,14.90,50.31,1022.08,2051.00,2277.05,2481.09,2717.75,600.27,608.13,41.37,0000 0000 0000 0000 000000
2016-02-18 11:00:09,0.01,3.24,0.00,18.80,22.69,26.58,14.91,50.20,1022.08,2051.00,2276.92,2481.03,2717.20,600.09,607.92,41.42,0000 0000 0000 0000 000000
2016-02-18 11:05:10,0.02,3.24,0.00,18.82,22.71,26.64,14.86,50.28,1022.09,2051.00,2276.15,2481.00,2717.00,599.90,607.70,41.47,0000 0000 0000 0000 000000
2016-02-18 11:10:12,0.00,3.24,0.00,18.85,22.72,26.61,14.94,50.27,1022.03,2051.00,2276.00,2481.00,2717.00,600.16,607.91,41.52,0000 0000 0000 0000 000000
2016-02-18 11:15:13,0.01,3.24,0.00,18.86,22.74,26.65,14.89,50.08,1022.02,2050.99,2275.70,2480.98,2716.95,599.93,607.58,41.57,0000 0000 0000 0000 000000
2016-02-18 11:20:14,0.03,3.24,0.00,18.88,22.74,26.64,14.81,50.13,1022.10,2050.98,2275.04,2480.94,2716.43,599.62,607.37,41.62,0000 0000 0000 0000 000000
2016-02-18 11:25:15,0.04,3.24,0.00,18.89,22.76,26.66,14.83,50.17,1022.03,2050.98,2274.67,2480.40,2716.04,599.89,607.53,41.68,0000 0000 0000 0000 000000
2016-02-18 11:30:17,0.02,3.24,0.00,18.91,22.77,26.73,14.84,50.10,1022.00,2050.96,2274.03,2480.04,2716.00,599.78,607.39,41.73,0000 0000 0000 0000 000000
2016-02-18 11:35:18,0.02,3.24,0.00,18.94,22.79,26.70,14.94,50.22,1022.01,2050.94,2273.43,2480.00,2715.99,600.37,607.90,41.78,0000 0000 0000 0000 000000
2016-02-18 11:40:20,0.01,3.25,0.00,18.96,22.79,26.71,14.80,50.19,1022.00,2050.96,2273.00,2479.99,2715.71,599.83,607.39,41.83,0000 0000 0000 0000 000000
2016-02-18 11:45:21,0.02,3.25,0.00,18.97,22.81,26.75,14.82,50.02,1022.02,2050.93,2272.60,2479.99,2715.30,599.79,607.35,41.88,0000 0000 0000 0000 000000
2016-02-18 11:50:22,0.01,3.25,0.00,18.98,22.82,26.76,14.91,50.15,1022.03,2050.91,2272.01,2479.92,2715.03,599.87,607.38,41.93,0000 0000 0000 0000 000000
2016-02-18 11:55:23,0.03,3.25,0.00,19.00,22.83,26.73,14.85,50.21,1022.02,2050.91,2271.68,2479.49,2715.00,600.06,607.48,41.98,0000 0000 0000 0000 000000
2016-02-18 12:00:25,0.01,3.25,0.00,19.02,22.85,26.78,14.84,50.10,1022.01,2050.81,2271.03,2479.09,2714.98,599.83,607.23,42.03,0000 0000 0000 0000 000000
2016-02-18 12:05:27,0.01,3.25,0.00,19.03,22.87,26.78,14.85,50.08,1022.03,2050.78,2270.64,2479.01,2714.84,600.13,607.43,42.08,0000 0000 0000 0000 000000
2016-02-18 12:10:28,0.02,3.25,0.00,19.04,22.88,26.77,14.93,50.26,1022.14,2050.65,2270.02,2479.00,2714.16,600.10,607.57,42.13,0000 0000 0000 0000 000000
2016-02-18 12:15:30,0.01,3.25,0.00,19.07,22.89,26.81,14.84,50.35,1022.18,2050.56,2269.75,2478.98,2714.02,600.13,607.49,42.18,0000 0000 0000 0000 000000
2016-02-18 12:20:31,-0.02,3.25,0.00,19.09,22.91,26.80,14.81,50.33,1022.08,2050.22,2269.03,2478.75,2713.99,599.73,606.90,42.23,0000 0000 0000 0000 000000
2016-02-18 12:25:32,0.04,3.25,0.00,19.12,22.92,26.83,14.89,50.36,1022.23,2050.14,2268.61,2478.21,2713.79,599.93,607.26,42.28,0000 0000 0000 0000 000000
2016-02-18 12:30:34,0.02,3.26,0.00,19.13,22.94,26.81,14.85,50.46,1022.16,2050.06,2267.97,2478.01,2713.10,599.73,606.94,42.33,0000 0000 0000 0000 000000
2016-02-18 12:35:35,0.02,3.26,0.00,19.14,22.95,26.84,14.95,50.49,1022.06,2050.03,2267.15,2477.98,2713.00,600.46,607.63,42.38,0000 0000 0000 0000 000000
2016-02-18 12:40:36,0.02,3.26,0.00,19.16,22.97,26.89,14.79,50.21,1022.02,2050.03,2266.83,2477.82,2712.94,599.54,606.69,42.43,0000 0000 0000 0000 000000
2016-02-18 12:45:37,0.06,3.26,0.00,19.18,22.98,26.87,14.92,50.48,1022.00,2050.01,2266.07,2477.20,2712.26,600.00,606.98,42.48,0000 0000 0000 0000 000000
2016-02-18 12:50:39,0.02,3.26,0.00,19.21,22.99,26.88,14.90,50.42,1022.00,2050.01,2265.40,2477.00,2712.00,600.44,607.38,42.54,0000 0000 0000 0000 000000
2016-02-18 12:55:40,0.00,3.26,0.00,19.22,23.01,26.92,14.91,50.24,1022.02,2050.01,2264.88,2476.99,2711.98,600.62,607.54,42.59,0000 0000 0000 0000 000000